Port Lavaca, TX

11:18 PM CDT on July 27, 2017 (GMT -0500)
Port Lavaca

Weather History for KPKV - February, 2014

Change the Weather History Date:

Friday, February 7, 2014

  Actual Average (KVCT) Record (KVCT)
Temperature  
Mean Temperature 34 °F -  
Max Temperature 37 °F 60 °F 88 °F (2017)
Min Temperature 32 °F 42 °F 25 °F (1914)
Degree Days  
Heating Degree Days 30    
Moisture  
Dew Point 31 °F    
Average Humidity 87    
Maximum Humidity 96    
Minimum Humidity 72    
Precipitation  
Precipitation 0.00 in - - ()
Sea Level Pressure  
Sea Level Pressure 30.27 in    
Wind  
Wind Speed 12 mph (North)    
Max Wind Speed 16 mph    
Max Gust Speed 23 mph    
Visibility 7 miles    
Events Rain    
Averages and records for this station are not official NWS values.
T = Trace of Precipitation, MM = Missing Value Source: NWS Daily Summary

Daily Weather History Graph

Daily Weather History Graph

Search for Another Location

Airport or City:

Trip Planner

Search our weather history database for the weather conditions in past years. The results will help you decide how hot, cold, wet, or windy it might be!

Date:

Astronomy

Feb. 07, 2014 Rise Set
Actual Time 7:11 AM CST 6:11 PM CST
Civil Twilight 6:46 AM CST 6:35 PM CST
Nautical Twilight 6:18 AM CST 7:03 PM CST
Astronomical Twilight 5:50 AM CST 7:31 PM CST
Moon 12:28 PM CST (2/7) 1:24 AM CST (2/7)
Length of Visible Light 11h 48m
Length of Day
10h 59m
First Quarter, 59% of the Moon is Illuminated
Feb 7
First Quarter
Feb 14
Full
Feb 22
Last Quarter
Mar 1
New
Mar 8
First Quarter

Hourly Weather History & Observations

Time (CST) Temp. Windchill Dew Point Humidity Pressure Visibility Wind Dir Wind Speed Gust Speed Precip Events Conditions
12:15 AM 34.0 °F 25.5 °F 25.7 °F 72% 30.37 in 10.0 mi North 11.5 mph - N/A   Overcast
12:35 AM 34.2 °F 26.2 °F 25.9 °F 72% 30.36 in 10.0 mi North 10.4 mph - N/A   Overcast
12:55 AM 33.8 °F 25.8 °F 25.7 °F 72% 30.34 in 10.0 mi NNE 10.4 mph - N/A   Overcast
1:15 AM 34.0 °F 26.0 °F 26.1 °F 73% 30.34 in 10.0 mi NNE 10.4 mph - N/A   Overcast
1:35 AM 34.2 °F 25.7 °F 26.6 °F 74% 30.33 in 10.0 mi NNE 11.5 mph - N/A   Overcast
1:55 AM 34.2 °F 25.7 °F 26.6 °F 74% 30.32 in 10.0 mi NNE 11.5 mph - N/A   Overcast
2:15 AM 34.2 °F 26.2 °F 26.6 °F 74% 30.32 in 10.0 mi North 10.4 mph - N/A   Overcast
2:35 AM 34.2 °F 25.7 °F 26.4 °F 73% 30.32 in 10.0 mi NNE 11.5 mph - N/A   Overcast
2:55 AM 34.0 °F 25.5 °F 26.4 °F 74% 30.32 in 10.0 mi North 11.5 mph - N/A   Overcast
3:15 AM 34.0 °F 25.5 °F 26.4 °F 74% 30.32 in 10.0 mi North 11.5 mph - N/A   Overcast
3:35 AM 34.2 °F 25.2 °F 26.6 °F 74% 30.31 in 10.0 mi North 12.7 mph - N/A   Overcast
3:55 AM 34.0 °F 25.0 °F 26.4 °F 74% 30.30 in 10.0 mi North 12.7 mph - N/A   Overcast
4:15 AM 34.2 °F 25.7 °F 26.6 °F 74% 30.29 in 10.0 mi North 11.5 mph 17.3 mph N/A   Overcast
4:35 AM 34.0 °F 24.6 °F 26.4 °F 74% 30.29 in 10.0 mi North 13.8 mph - N/A   Overcast
4:55 AM 34.0 °F 24.6 °F 26.4 °F 74% 30.27 in 10.0 mi NNE 13.8 mph - N/A   Overcast
5:15 AM 34.2 °F 26.2 °F 26.6 °F 74% 30.29 in 10.0 mi North 10.4 mph - N/A   Overcast
5:35 AM 34.2 °F 25.7 °F 26.6 °F 74% 30.28 in 10.0 mi NNE 11.5 mph - N/A   Overcast
5:55 AM 34.2 °F 25.2 °F 26.6 °F 74% 30.28 in 10.0 mi North 12.7 mph - N/A   Overcast
6:15 AM 34.3 °F 27.0 °F 27.1 °F 75% 30.28 in 10.0 mi North 9.2 mph - N/A   Overcast
6:35 AM 34.3 °F 25.9 °F 27.5 °F 76% 30.27 in 10.0 mi NNE 11.5 mph - N/A   Overcast
6:55 AM 34.3 °F 25.9 °F 27.5 °F 76% 30.27 in 10.0 mi North 11.5 mph - N/A   Overcast
7:15 AM 34.5 °F 25.3 °F 27.5 °F 76% 30.29 in 10.0 mi North 13.8 mph - N/A   Overcast
7:35 AM 33.8 °F 30.8 °F 29.1 °F 83% 30.29 in 10.0 mi North 3.5 mph - N/A   Light Drizzle
7:55 AM 33.6 °F 23.7 °F 29.1 °F 84% 30.30 in 7.0 mi North 15.0 mph - N/A Rain Light Rain
8:15 AM 32.9 °F 23.7 °F 30.4 °F 90% 30.29 in 3.0 mi North 12.7 mph 18.4 mph N/A   Light Drizzle
8:35 AM 32.9 °F 24.7 °F 31.1 °F 93% 30.29 in 3.0 mi NNE 10.4 mph - N/A   Light Drizzle
8:55 AM 32.9 °F 24.7 °F 31.5 °F 94% 30.29 in 3.0 mi NNE 10.4 mph - N/A   Light Drizzle
9:15 AM 33.1 °F 23.9 °F 32.0 °F 96% 30.29 in 2.0 mi NNE 12.7 mph - N/A Rain Rain
9:35 AM 33.3 °F 23.2 °F 32.0 °F 95% 30.30 in 2.0 mi North 15.0 mph - N/A   Drizzle
9:55 AM 33.1 °F 23.9 °F 32.0 °F 96% 30.30 in 2.5 mi North 12.7 mph 19.6 mph N/A   Drizzle
10:15 AM 32.9 °F 23.7 °F 32.0 °F 96% 30.31 in 2.5 mi North 12.7 mph 21.9 mph N/A Rain Light Rain
10:35 AM 33.3 °F 23.2 °F 32.0 °F 95% 30.31 in 3.0 mi North 15.0 mph - N/A   Light Drizzle
10:55 AM 33.3 °F 22.8 °F 32.0 °F 95% 30.31 in 5.0 mi North 16.1 mph - N/A   Overcast
11:15 AM 33.4 °F 23.9 °F 32.0 °F 94% 30.31 in 5.0 mi NNE 13.8 mph - N/A   Overcast
11:35 AM 33.8 °F 24.3 °F 32.0 °F 93% 30.30 in 7.0 mi NNE 13.8 mph - N/A   Overcast
11:55 AM 34.2 °F 24.8 °F 32.4 °F 93% 30.29 in 5.0 mi NNE 13.8 mph 21.9 mph N/A   Overcast
12:15 PM 34.2 °F 24.0 °F 32.4 °F 93% 30.28 in 5.0 mi North 16.1 mph 23.0 mph N/A   Overcast
12:35 PM 34.2 °F 24.4 °F 32.4 °F 93% 30.27 in 4.0 mi North 15.0 mph - N/A   Overcast
12:55 PM 34.3 °F 24.6 °F 32.9 °F 94% 30.26 in 4.0 mi North 15.0 mph 18.4 mph N/A   Overcast
1:15 PM 34.7 °F 25.9 °F 33.3 °F 94% 30.24 in 3.0 mi NNE 12.7 mph - N/A   Overcast
1:35 PM 35.1 °F 25.2 °F 33.6 °F 94% 30.23 in 2.5 mi NNE 16.1 mph - N/A   Overcast
1:55 PM 35.6 °F 27.5 °F 34.0 °F 94% 30.23 in 2.5 mi North 11.5 mph 18.4 mph N/A   Overcast
2:15 PM 35.4 °F 26.4 °F 34.0 °F 94% 30.22 in 2.5 mi North 13.8 mph - N/A   Overcast
2:35 PM 35.4 °F 25.6 °F 34.0 °F 94% 30.22 in 2.5 mi North 16.1 mph 20.7 mph N/A   Overcast
2:55 PM 35.6 °F 25.9 °F 34.2 °F 94% 30.21 in 2.5 mi North 16.1 mph 20.7 mph N/A   Overcast
3:15 PM 35.6 °F 27.5 °F 34.5 °F 96% 30.20 in 2.5 mi North 11.5 mph - N/A   Overcast
3:35 PM 35.6 °F 27.5 °F 34.5 °F 96% 30.20 in 3.0 mi North 11.5 mph 18.4 mph N/A   Overcast
3:55 PM 35.8 °F 27.8 °F 34.5 °F 95% 30.21 in 4.0 mi North 11.5 mph - N/A   Overcast
4:15 PM 36.1 °F 28.2 °F 34.5 °F 94% 30.21 in 5.0 mi North 11.5 mph - N/A   Overcast
4:35 PM 36.3 °F 28.9 °F 34.5 °F 93% 30.21 in 5.0 mi North 10.4 mph 17.3 mph N/A   Overcast
4:55 PM 36.5 °F 28.7 °F 34.3 °F 92% 30.22 in 7.0 mi North 11.5 mph - N/A   Overcast
5:15 PM 36.7 °F 29.4 °F 34.3 °F 91% 30.23 in 7.0 mi North 10.4 mph - N/A   Overcast
5:35 PM 36.7 °F 29.4 °F 34.2 °F 91% 30.23 in 7.0 mi North 10.4 mph - N/A   Overcast
5:55 PM 36.5 °F 27.8 °F 34.0 °F 91% 30.24 in 7.0 mi North 13.8 mph 17.3 mph N/A   Overcast
6:15 PM 36.5 °F 28.7 °F 34.0 °F 91% 30.24 in 7.0 mi North 11.5 mph - N/A   Overcast
6:35 PM 36.5 °F 29.2 °F 34.0 °F 91% 30.25 in 7.0 mi NNW 10.4 mph - N/A   Overcast
6:55 PM 36.1 °F 28.7 °F 34.2 °F 93% 30.25 in 7.0 mi North 10.4 mph - N/A   Overcast
7:15 PM 36.0 °F 28.5 °F 34.3 °F 94% 30.26 in 5.0 mi NNW 10.4 mph - N/A   Overcast
7:35 PM 35.6 °F 28.0 °F 34.5 °F 96% 30.26 in 4.0 mi NNW 10.4 mph - N/A   Overcast
7:55 PM 35.8 °F 28.3 °F 34.3 °F 94% 30.27 in 5.0 mi North 10.4 mph - N/A   Overcast
8:15 PM 35.8 °F 29.4 °F 34.2 °F 94% 30.25 in 7.0 mi North 8.1 mph - N/A   Overcast
8:35 PM 36.1 °F 30.6 °F 34.0 °F 92% 30.25 in 7.0 mi NNE 6.9 mph - N/A   Overcast
8:55 PM 36.5 °F 29.7 °F 34.2 °F 91% 30.25 in 7.0 mi North 9.2 mph - N/A   Overcast
9:15 PM 36.5 °F 29.7 °F 34.0 °F 91% 30.26 in 7.0 mi North 9.2 mph - N/A   Overcast
9:35 PM 36.7 °F 28.9 °F 33.8 °F 89% 30.25 in 10.0 mi North 11.5 mph - N/A   Overcast
9:55 PM 36.9 °F 30.1 °F 34.0 °F 89% 30.25 in 7.0 mi North 9.2 mph - N/A   Overcast
10:15 PM 37.0 °F 30.4 °F 34.0 °F 89% 30.24 in 10.0 mi NNE 9.2 mph - N/A   Overcast
10:35 PM 37.0 °F 31.0 °F 34.0 °F 89% 30.24 in 10.0 mi North 8.1 mph - N/A   Overcast
10:55 PM 37.4 °F 30.8 °F 34.2 °F 88% 30.23 in 7.0 mi North 9.2 mph - N/A   Overcast
11:15 PM 37.4 °F 31.4 °F 34.5 °F 89% 30.24 in 10.0 mi North 8.1 mph - N/A   Overcast
11:35 PM 37.6 °F 31.6 °F 34.7 °F 89% 30.25 in 10.0 mi North 8.1 mph - N/A   Overcast
11:55 PM 37.6 °F 31.6 °F 34.7 °F 89% 30.25 in 7.0 mi North 8.1 mph - N/A   Overcast